Regional Weather Roundup
Issued by NWS Sioux Falls, SD

Home | Current Version | Previous Version | Text Only | Print | Product List | Glossary On
Versions: 1 2 3 4 5 6 7 8 9 10 11 12 13 14 15 16 17 18 19 20 21 22 23 24 25 26 27 28 29 30 31 32 33 34 35 36 37 38 39 40 41 42 43 44 45 46 47 48 49 50
000
ASUS43 KFSD 222010
RWRFSD

WEATHER ROUNDUP FOR SE SOUTH DAKOTA/SW MINNESOTA/NW IOWA
NATIONAL WEATHER SERVICE SIOUX FALLS SD
300 PM CDT SAT JUL 22 2017

NOTE: "FAIR" INDICATES FEW OR NO CLOUDS BELOW 12,000 FEET WITH NO
SIGNIFICANT WEATHER AND OR OBSTRUCTIONS TO VISIBILITY.


SDZ038>040-050-052>070-222100-
SOUTHEAST SOUTH DAKOTA

CITY           SKY/WX    TMP DP  RH WIND       PRES   REMARKS
BROOKINGS      MOSUNNY   85  67  54 NW13      29.93S
CHAMBERLAIN    CLOUDY    95  51  22 SW8       29.96S
HURON          SUNNY     88  62  41 NW8       29.92S
MADISON        FAIR      82  68  61 NW10      29.95S
MITCHELL       PTSUNNY   86  70  58 NW8       29.94S
SIOUX FALLS    CLOUDY    86  75  69 W10       29.92S HX  95
WINNER         FAIR      94  58  29 VRB5      29.99F
YANKTON        PTSUNNY   83  72  69 W9        29.94S
$$

MNZ071-072-080-081-089-090-097-098-222100-
SOUTHWEST MINNESOTA

CITY           SKY/WX    TMP DP  RH WIND       PRES   REMARKS
FAIRMONT       PTSUNNY   84  73  69 NW12      29.86F
JACKSON        MOSUNNY   84  70  61 NW12G17   29.89F
LUVERNE        PTSUNNY   84  68  58 W10G16    29.92S
MARSHALL       PTSUNNY   84  72  67 NW10      29.89R
MONTEVIDEO     SUNNY     90  73  58 N9        29.87S HX  98
PIPESTONE      PTSUNNY   84  66  54 NW8       29.93S
REDWOOD FALLS  MOSUNNY   84  71  65 NW8       29.86R
WINDOM         SUNNY     88  72  58 W12       29.89R
WORTHINGTON    MOSUNNY   85  69  58 NW13      29.92R
$$

IAZ001>003-012>014-020>022-031-032-NEZ013-014-SDZ071-222100-
NORTHWEST IOWA

CITY           SKY/WX    TMP DP  RH WIND       PRES   REMARKS
CHEROKEE       PTSUNNY   84  75  72 NW6       29.89S
DENISON        SUNNY     86  75  70 N8        29.90R HX  95
ESTHERVILLE    MOSUNNY   84  73  69 NW9       29.87S
ORANGE CITY    CLOUDY    82  77  83 NW10      29.92S
SHELDON        MOSUNNY   84  75  74 NW10G18   29.91R
SIOUX CITY     MOSUNNY   80  74  81 N12       29.91R
SPENCER        PTSUNNY   86  73  65 NW14      29.89R
STORM LAKE     MOSUNNY   86  72  62 W9G16     29.90R
$$

ABBREVIATIONS USED IN REMARKS
   TC - TEMPERATURE IN CELSIUS
  WCI - WIND CHILL INDEX
   HX - HEAT INDEX
  VSB - VISIBILITY




USA.gov is the U.S. government's official web portal to all federal, state and local government web resources and services.